Location: L�beck
(53.8752°N, 10.6787°E)
Time: 11:28:53
(UTC+01:00)

ISS - Pass Details

Date: 09 January 2018
Orbit: 402 x 407 km, 51.6° (Epoch: 22 January)

Event Time Altitude Azimuth Distance (km) Brightness Sun altitude
Exits shadow 05:48:36 40° 137° (SE) 617 -2.6 -22.9°
Drops below altitude 10° 05:50:59 10° 110° (ESE) 1,469 0.1 -22.5°
Sets 05:53:06 0° 106° (ESE) 2,329 1.5 -22.2°
